MDT,Max TemperatureF,Mean TemperatureF,Min TemperatureF,Max Dew PointF,MeanDew PointF,Min DewpointF,Max Humidity, Mean Humidity, Min Humidity, Max Sea Level PressureIn, Mean Sea Level PressureIn, Min Sea Level PressureIn, Max VisibilityMiles, Mean VisibilityMiles, Min VisibilityMiles, Max Wind SpeedMPH, Mean Wind SpeedMPH, Max Gust SpeedMPH,PrecipitationIn, CloudCover, Events, WindDirDegrees
2013-8-1,96,82,67,64,60,55,84,56,28,30.12,29.92,29.77,10,10,10,30,15,40,T,1,Rain-Thunderstorm,177
2013-8-2,95,79,63,68,63,57,100,65,30,30.06,29.86,29.77,10,10,6,20,11,25,0.00,3,,118
2013-8-3,71,69,66,70,66,63,100,91,81,30.22,30.08,29.92,10,5,0,23,10,28,T,8,Fog,90
2013-8-4,88,77,65,68,65,62,100,72,43,30.17,30.07,29.91,10,5,0,17,8,22,0.00,5,Fog,116
2013-8-5,95,79,62,70,64,55,100,69,37,30.05,29.92,29.82,10,8,4,32,9,39,0.04,2,Rain-Thunderstorm,177
2013-8-6,86,74,62,68,64,61,90,69,48,30.02,29.85,29.81,10,9,2,23,7,28,0.00,0,,150
2013-8-7,77,69,60,63,59,55,93,72,50,30.11,30.00,29.90,10,8,2,26,7,32,0.45,5,Rain-Thunderstorm,69
2013-8-8,73,67,61,63,60,55,100,79,57,30.13,30.04,29.92,10,9,2,16,5,22,0.06,7,Rain,95
2013-8-9,80,67,54,61,57,52,100,70,39,30.21,30.14,30.06,10,6,0,14,7,18,0.00,2,Fog,229
2013-8-10,80,69,57,61,57,52,87,66,45,30.17,30.11,30.04,10,10,10,24,12,28,0.00,0,,183
2013-8-11,83,73,62,66,62,60,93,72,51,30.16,30.03,29.96,10,9,6,16,7,21,T,2,Rain-Thunderstorm,174
2013-8-12,86,74,61,64,61,57,100,70,40,30.16,30.07,29.98,10,6,0,20,8,24,0.03,3,Fog-Rain,32
2013-8-13,79,70,60,63,59,56,97,73,48,30.23,30.11,30.05,10,10,10,17,8,22,T,4,,93
2013-8-14,80,70,59,64,60,54,93,71,48,30.22,30.10,29.99,10,9,6,31,9,39,0.20,5,Rain-Thunderstorm,193
2013-8-15,84,71,57,59,55,52,90,64,37,30.18,30.01,29.95,10,10,9,23,8,28,0.00,1,Rain,195
2013-8-16,85,70,54,64,60,53,100,74,48,30.19,30.08,30.01,10,7,0,17,7,20,0.00,3,Fog,118
2013-8-17,81,73,64,64,63,62,93,74,54,30.16,30.04,29.96,10,8,5,21,14,26,0.00,6,,159
2013-8-18,83,74,64,64,62,61,93,72,51,30.12,30.00,29.92,10,8,4,22,13,29,0.00,5,,164
2013-8-19,92,75,57,64,61,57,97,67,36,30.08,29.94,29.89,10,8,2,20,10,25,0.00,0,,171
2013-8-20,94,77,59,63,60,58,93,62,30,29.93,29.88,29.84,10,10,5,22,13,28,0.00,0,,172
2013-8-21,98,81,63,60,57,52,84,53,22,29.89,29.86,29.82,10,10,10,23,13,31,0.00,0,,179
2013-8-22,92,78,63,65,60,52,93,63,32,30.12,29.96,29.87,10,10,10,22,12,26,T,0,Thunderstorm,12
2013-8-23,91,78,65,64,61,53,100,67,34,30.08,29.93,29.81,10,8,2,20,9,26,T,2,,144
2013-8-24,96,79,62,57,55,50,78,50,21,29.94,29.88,29.84,10,10,10,31,18,40,0.00,0,,180
2013-8-25,97,82,66,57,55,51,73,48,23,29.99,29.96,29.92,10,10,10,29,17,35,0.00,0,,179
2013-8-26,98,83,68,58,55,51,68,45,21,29.99,29.94,29.89,10,10,10,26,17,35,0.00,0,,188
2013-8-27,98,81,64,56,53,46,68,43,18,29.94,29.90,29.86,10,10,10,22,11,26,0.00,0,,184
2013-8-28,96,78,59,56,52,44,78,48,17,29.96,29.92,29.88,10,10,10,20,10,24,0.00,0,,173
2013-8-29,101,79,56,56,50,42,86,50,14,29.95,29.91,29.86,10,10,10,15,8,21,0.00,0,,191
2013-8-30,102,83,64,61,51,44,60,38,15,30.07,29.91,29.86,10,10,10,25,8,31,T,1,,5
2013-8-31,96,82,67,62,58,52,81,52,23,30.07,29.87,29.78,10,10,7,32,10,44,0.15,2,Rain-Thunderstorm,176